Temp
59 59 59 59 59 58 59 59 59 59 59 60 59 59 59 59 57 49 44 54 55 60 57 49 47 45 44 40 42 41 30 27 29 31 37 43 36 42 46 43 45 49 48 52 52
58 59 58 58 58 58 58 58 58 59 59 59 59 59 59 58 45 44 57 61 60 59 48 43 40 42 35 36 37 33 28 30 36 35 34 36 37 38 37 39 40 41 49 51 52
58 58 58 58 58 58 59 59 59 59 59 59 59 59 58 52 39 43 60 61 60 55 49 46 43 39 31 33 33 31 26 30 36 36 38 36 36 39 35 33 39 38 42 47 48
58 58 57 58 58 58 58 58 58 58 58 58 58 58 57 45 31 46 60 60 59 51 46 42 38 31 29 27 33 25 31 33 35 37 36 33 36 33 35 36 42 43 45 46 46
57 57 57 57 57 58 58 57 58 58 58 58 58 57 46 35 37 51 57 55 50 46 41 38 34 31 27 28 31 27 31 34 36 35 35 36 32 32 33 39 42 43 44 44 45
57 56 57 57 57 57 57 57 57 57 57 58 57 55 39 30 48 50 48 48 47 42 39 38 35 37 30 29 27 30 30 31 34 33 34 31 32 33 35 40 39 40 40 42 43
56 56 56 56 56 57 57 57 57 57 56 57 57 49 36 36 46 47 47 45 45 43 38 41 40 35 32 28 33 31 25 29 30 32 30 32 26 27 36 39 37 37 39 41 43
56 56 56 56 56 56 56 56 56 56 56 56 55 43 33 47 44 47 46 44 45 45 42 43 41 35 31 33 30 25 23 18 29 30 31 29 20 32 38 36 35 37 38 39 41
56 55 55 55 55 56 55 54 55 54 55 54 42 37 33 51 42 46 43 41 41 41 40 47 38 31 30 24 18 22 14 16 23 33 29 26 22 33 39 37 35 36 38 39 40
55 55 56 55 55 55 54 54 52 48 47 50 46 33 38 36 41 43 43 42 37 36 36 34 30 25 23 17 8 17 16 20 19 26 28 24 24 31 35 35 35 35 36 38 39
55 55 56 55 56 54 46 37 33 34 34 30 31 31 33 40 42 40 42 38 36 33 24 28 21 16 20 23 24 22 18 16 21 28 25 23 24 29 34 34 33 35 36 36 38
55 55 55 55 55 52 40 33 33 35 26 34 34 34 37 38 32 37 41 32 31 25 26 20 14 26 28 28 25 23 18 17 24 28 26 24 23 29 31 32 32 31 31 32 35
55 55 54 55 54 42 35 35 40 38 23 30 34 34 36 36 32 33 36 33 27 22 21 14 21 30 27 25 23 22 19 19 18 25 25 22 18 25 28 26 29 30 31 31 31
55 55 54 54 44 37 34 40 39 37 10 28 31 35 37 34 29 38 38 34 28 16 21 15 25 26 23 19 24 14 26 24 22 15 8 22 7 21 21 21 25 26 27 28 29
54 54 54 52 39 35 39 39 38 33 8 31 32 41 36 32 32 31 37 33 22 24 17 17 20 21 16 22 27 16 27 22 19 14 13 13 9 16 19 17 20 24 27 27 29
54 54 54 44 38 38 39 37 34 15 7 26 31 30 30 31 30 32 31 32 30 19 21 22 28 20 21 28 27 26 17 18 9 5 1 12 12 16 13 17 19 22 24 26 27
54 54 51 44 39 39 38 32 17 11 29 25 27 29 26 24 25 22 16 11 11 4 0 17 19 27 29 12 15 9 2 -8 -7 -8 -4 19 13 16 16 20 20 19 21 24 25
54 54 47 43 40 39 34 23 9 19 21 30 28 26 22 25 23 16 11 8 15 2 11 -0 3 17 28 19 10 4 4 -1 -4 -10 5 19 1 13 20 23 24 23 22 23 23
53 42 39 39 40 37 27 14 17 22 30 25 25 16 16 23 20 14 5 7 15 10 6 -7 4 25 28 26 18 6 7 16 10 -10 -5 5 14 17 25 22 21 19 21 20 21
42 38 38 38 38 31 24 23 21 31 30 25 17 20 13 13 14 14 9 17 16 20 18 8 2 22 23 22 19 17 23 7 6 -4 -8 0 5 7 12 14 16 15 16 18 20
39 33 35 38 40 28 20 15 22 32 32 23 19 18 18 13 14 13 15 21 24 23 22 5 5 8 15 2 3 7 9 17 17 9 1 -2 2 8 10 14 13 15 17 17 18
37 29 34 39 26 24 14 19 31 29 31 27 26 23 18 13 15 12 13 20 28 26 16 17 2 -3 4 15 14 12 13 18 9 3 7 8 7 10 14 16 16 15 17 19 19
32 34 37 37 23 14 22 24 28 28 27 21 22 24 20 18 13 13 19 25 29 23 17 16 5 -2 2 7 10 7 11 19 17 14 6 5 5 12 15 16 16 15 16 17 19
33 25 28 30 30 24 23 23 23 28 25 28 24 26 22 16 16 13 18 26 29 26 31 23 13 7 0 3 -2 8 11 16 14 7 3 8 7 15 15 13 14 14 15 15 16
32 23 22 20 22 23 24 25 22 21 27 25 24 23 22 16 18 14 19 19 24 28 25 21 12 -1 8 6 -0 9 8 10 9 12 8 6 5 15 11 12 13 15 15 15 15
27 26 21 26 28 25 26 22 22 23 24 22 21 23 23 19 19 17 19 20 20 19 19 18 11 2 -1 5 -13 -4 4 8 10 12 12 10 10 11 10 13 14 14 13 13 13
33 35 29 27 23 21 22 23 23 26 26 28 25 22 20 21 26 26 26 24 24 20 17 15 13 6 -4 -2 -3 -1 1 4 5 7 11 7 12 13 9 10 11 12 13 12 12
MSLP
1024.47 1024.09 1023.84 1023.47 1023.05 1022.67 1022.18 1021.65 1021.21 1020.71 1020.23 1019.76 1019.45 1019.13 1018.83 1018.53 1018.17 1017.78 1017.39 1017.11 1017.13 1017.09 1017.08 1017.17 1016.91 1016.60 1016.53 1016.80 1016.92 1016.95 1017.28 1015.57 1014.62 1014.20 1012.95 1012.71 1013.43 1012.97 1012.82 1012.23 1012.03 1011.35 1010.46 1009.81 1009.57
1024.48 1024.16 1023.86 1023.38 1022.92 1022.49 1021.94 1021.52 1021.04 1020.50 1020.00 1019.55 1019.17 1018.93 1018.54 1018.35 1018.36 1017.83 1017.27 1016.82 1017.19 1017.01 1017.04 1017.25 1017.25 1017.20 1017.12 1017.19 1017.26 1017.44 1017.03 1015.45 1014.72 1014.73 1014.36 1013.66 1014.35 1014.10 1013.76 1012.61 1011.51 1011.75 1010.78 1010.38 1009.70
1024.75 1024.35 1023.90 1023.41 1022.95 1022.34 1021.80 1021.32 1020.88 1020.32 1019.86 1019.34 1018.97 1018.61 1018.37 1018.49 1018.58 1017.82 1017.34 1017.28 1017.14 1017.22 1017.23 1017.35 1017.47 1017.65 1017.83 1017.99 1018.03 1017.68 1016.86 1016.19 1014.66 1015.30 1015.54 1014.58 1013.91 1014.63 1014.16 1012.29 1012.87 1011.77 1010.93 1010.55 1010.19
1024.75 1024.31 1023.99 1023.40 1022.78 1022.18 1021.60 1021.01 1020.47 1019.95 1019.46 1019.08 1018.71 1018.28 1018.33 1018.78 1018.84 1017.83 1017.58 1017.45 1017.32 1017.49 1017.64 1017.74 1017.79 1017.87 1018.32 1018.48 1018.28 1018.29 1017.24 1017.00 1015.70 1015.99 1015.87 1015.48 1014.78 1013.62 1013.81 1012.31 1012.57 1011.65 1011.19 1010.29 1010.17
1024.86 1024.27 1023.73 1023.22 1022.67 1022.00 1021.41 1020.89 1020.21 1019.69 1019.16 1018.71 1018.55 1018.28 1018.50 1018.76 1018.16 1017.63 1017.56 1017.46 1017.36 1017.51 1017.65 1017.80 1017.98 1018.24 1018.58 1018.65 1018.67 1018.43 1017.31 1016.83 1015.93 1015.51 1015.50 1015.48 1014.72 1013.95 1012.71 1012.05 1011.52 1011.14 1010.56 1009.79 1009.16
1024.90 1024.29 1023.66 1023.05 1022.50 1021.85 1021.20 1020.50 1019.80 1019.46 1018.84 1018.45 1018.38 1018.47 1018.88 1018.54 1017.25 1017.35 1017.44 1017.40 1017.38 1017.50 1017.64 1017.88 1018.13 1018.51 1019.02 1019.13 1019.19 1018.11 1017.84 1017.25 1016.50 1015.61 1015.68 1015.09 1014.63 1014.11 1011.96 1010.57 1010.18 1009.94 1009.47 1008.98 1008.12
1024.78 1024.31 1023.72 1023.01 1022.27 1021.48 1020.82 1020.16 1019.72 1019.04 1018.58 1018.17 1018.03 1018.27 1018.80 1017.91 1017.28 1017.36 1017.37 1017.30 1017.23 1017.29 1017.53 1017.72 1018.02 1018.65 1018.95 1018.99 1018.35 1018.25 1018.32 1017.48 1016.05 1015.07 1014.93 1014.82 1014.41 1013.21 1011.09 1009.73 1009.68 1009.27 1009.08 1008.35 1007.79
1024.88 1024.34 1023.81 1023.21 1022.41 1021.60 1020.74 1020.23 1019.74 1019.08 1018.64 1018.32 1017.87 1018.48 1018.52 1017.42 1017.32 1017.31 1017.20 1017.18 1017.02 1017.03 1017.31 1017.29 1017.73 1018.43 1018.85 1018.67 1018.47 1018.54 1018.36 1017.11 1014.70 1014.09 1013.99 1014.28 1012.97 1011.42 1009.34 1009.68 1008.92 1008.24 1007.66 1007.34 1006.43
1024.95 1024.60 1024.12 1023.49 1022.69 1021.64 1020.81 1019.85 1019.20 1019.03 1019.01 1018.55 1018.69 1018.85 1018.10 1017.02 1017.24 1017.12 1017.24 1017.34 1017.16 1017.14 1017.21 1017.28 1017.77 1018.33 1018.76 1019.15 1019.20 1018.44 1017.58 1016.50 1014.71 1012.95 1013.34 1013.48 1012.05 1009.52 1008.08 1008.67 1008.04 1007.05 1006.40 1005.86 1005.17
1024.96 1024.43 1023.78 1023.33 1022.59 1021.79 1021.17 1019.79 1019.27 1018.91 1018.96 1018.81 1019.28 1019.82 1018.40 1017.78 1017.50 1017.11 1016.88 1017.02 1017.21 1017.35 1017.49 1017.72 1018.23 1018.68 1018.97 1019.26 1018.84 1017.44 1017.13 1015.77 1014.37 1012.75 1013.07 1012.41 1010.87 1008.42 1007.62 1008.00 1006.78 1005.97 1005.59 1005.02 1004.38
1024.70 1024.26 1023.70 1023.25 1022.53 1022.07 1021.58 1020.67 1021.15 1020.44 1020.55 1020.58 1020.25 1020.15 1018.99 1018.17 1017.64 1017.13 1016.76 1016.97 1017.30 1017.85 1018.43 1018.57 1018.99 1018.59 1017.69 1017.77 1017.23 1016.79 1016.34 1015.09 1013.54 1012.14 1012.74 1011.00 1010.04 1006.65 1006.16 1006.90 1005.92 1005.09 1004.70 1004.12 1003.49
1024.67 1024.14 1023.65 1023.11 1022.53 1022.48 1022.60 1022.99 1023.50 1023.65 1022.14 1020.24 1020.00 1019.75 1018.84 1018.60 1018.23 1017.36 1017.04 1017.45 1017.78 1018.25 1018.73 1019.46 1018.50 1016.89 1016.95 1016.87 1016.67 1016.39 1015.73 1014.08 1012.79 1012.06 1012.01 1010.32 1008.91 1006.11 1006.09 1005.67 1005.54 1005.43 1004.99 1004.56 1003.61
1024.66 1024.18 1023.71 1023.09 1022.56 1023.04 1023.49 1023.62 1023.59 1023.51 1023.43 1020.29 1019.53 1019.23 1018.48 1018.64 1018.10 1017.45 1017.35 1017.43 1017.99 1018.53 1018.88 1019.05 1017.03 1016.81 1016.74 1016.25 1016.03 1015.29 1015.37 1014.08 1013.20 1011.61 1011.79 1010.46 1008.48 1006.95 1006.07 1006.22 1006.24 1005.94 1005.73 1005.32 1004.72
1024.60 1024.12 1023.76 1023.13 1023.17 1023.53 1023.56 1023.57 1023.41 1023.46 1022.98 1020.10 1019.08 1018.08 1018.00 1018.09 1017.99 1017.17 1016.96 1017.53 1018.17 1018.61 1019.03 1018.69 1017.23 1016.82 1016.24 1015.95 1015.72 1015.03 1014.29 1013.99 1013.47 1013.43 1011.59 1011.15 1009.68 1006.98 1006.52 1006.68 1006.63 1006.45 1006.19 1005.65 1004.95
1024.28 1023.64 1023.34 1023.05 1023.76 1023.81 1023.78 1023.72 1023.58 1023.62 1022.41 1019.48 1018.36 1017.55 1017.76 1018.60 1018.12 1017.33 1016.98 1017.30 1017.97 1018.52 1019.47 1017.61 1017.00 1016.69 1016.14 1015.43 1015.26 1014.93 1014.54 1014.54 1014.07 1013.72 1013.16 1010.90 1010.99 1006.63 1007.01 1007.12 1007.16 1006.99 1006.69 1006.06 1005.20
1024.00 1023.65 1023.17 1023.48 1023.89 1023.53 1023.56 1023.51 1023.80 1023.99 1021.13 1018.90 1018.06 1017.82 1018.04 1018.39 1018.46 1017.96 1018.07 1017.98 1018.44 1019.10 1018.72 1017.54 1016.75 1016.50 1015.49 1015.01 1015.32 1015.34 1015.40 1014.80 1014.77 1014.79 1013.97 1011.27 1010.70 1006.74 1008.07 1008.21 1007.80 1007.39 1006.97 1006.24 1005.36
1023.84 1023.35 1023.02 1023.23 1023.33 1023.35 1023.43 1023.86 1024.31 1022.99 1020.06 1019.07 1018.53 1018.44 1018.67 1018.68 1018.86 1018.97 1019.53 1019.84 1020.29 1020.68 1020.10 1018.22 1016.88 1015.50 1015.07 1015.82 1015.91 1016.58 1017.09 1017.01 1016.60 1016.02 1013.93 1011.28 1010.43 1008.13 1008.40 1008.48 1008.27 1007.53 1007.01 1006.40 1005.62
1023.41 1022.70 1022.40 1022.65 1022.87 1022.99 1023.54 1024.05 1024.16 1021.18 1019.88 1018.88 1019.02 1019.05 1019.42 1019.48 1019.57 1020.08 1020.47 1020.49 1020.32 1020.88 1021.32 1020.02 1017.42 1016.03 1015.19 1015.76 1016.70 1017.19 1017.73 1017.99 1017.20 1016.54 1013.17 1011.54 1010.08 1008.23 1008.45 1008.48 1008.42 1008.14 1007.49 1006.71 1005.93
1023.00 1022.68 1022.28 1022.30 1022.58 1023.01 1023.90 1024.22 1022.08 1020.50 1019.48 1019.43 1019.42 1019.64 1019.99 1020.08 1020.77 1021.11 1021.48 1020.76 1020.09 1020.48 1020.87 1020.48 1018.20 1016.05 1015.55 1015.46 1016.29 1016.90 1017.09 1016.14 1016.02 1015.52 1015.05 1011.74 1009.74 1009.22 1008.37 1008.39 1008.43 1008.27 1007.82 1007.22 1006.37
1023.56 1023.28 1022.74 1022.66 1022.78 1023.42 1024.10 1022.89 1021.16 1019.85 1019.54 1019.85 1020.11 1020.13 1020.43 1020.71 1021.43 1021.48 1021.21 1019.46 1019.28 1019.18 1019.50 1019.77 1018.91 1016.52 1016.01 1015.83 1015.79 1016.13 1015.83 1015.67 1015.59 1015.42 1014.68 1012.11 1010.89 1010.06 1009.68 1009.50 1009.21 1008.83 1008.40 1007.59 1006.77
1023.82 1023.52 1023.06 1023.05 1022.97 1023.89 1023.72 1022.36 1020.76 1019.65 1019.80 1019.88 1019.65 1019.77 1019.63 1020.31 1020.83 1020.88 1019.91 1018.56 1018.14 1018.32 1018.98 1019.63 1020.06 1017.84 1017.35 1017.00 1016.28 1016.38 1015.86 1015.07 1014.74 1014.84 1014.35 1012.80 1011.22 1010.94 1010.83 1010.50 1009.97 1009.43 1008.91 1008.18 1007.33
1024.00 1024.00 1023.18 1023.11 1023.74 1023.25 1022.69 1021.37 1020.42 1019.48 1019.32 1019.24 1019.37 1019.38 1019.46 1019.77 1019.89 1020.02 1018.88 1017.70 1016.98 1017.64 1018.54 1018.88 1019.56 1018.94 1017.85 1016.36 1016.29 1016.26 1015.72 1014.88 1014.67 1014.40 1014.00 1013.47 1011.20 1010.76 1010.92 1010.87 1010.51 1010.00 1009.41 1008.71 1008.01
1024.00 1023.25 1023.03 1023.11 1023.15 1022.53 1021.29 1020.65 1020.27 1019.37 1019.11 1018.69 1018.72 1018.88 1019.06 1019.19 1019.49 1018.35 1017.67 1016.73 1016.55 1017.25 1017.67 1018.20 1019.17 1019.44 1017.95 1017.62 1016.94 1016.65 1015.95 1015.27 1014.79 1014.18 1013.38 1013.47 1011.08 1010.56 1010.78 1010.92 1010.81 1010.54 1009.99 1009.34 1008.59
1024.30 1023.62 1023.20 1023.27 1022.56 1022.26 1021.49 1019.72 1019.34 1018.95 1018.52 1018.17 1018.35 1018.21 1018.11 1017.94 1018.02 1017.14 1016.49 1015.64 1015.77 1016.16 1016.47 1017.44 1017.75 1018.91 1019.17 1018.56 1018.35 1017.37 1015.85 1015.23 1015.20 1014.35 1013.19 1012.30 1011.19 1010.83 1011.19 1011.45 1011.18 1010.95 1010.68 1010.14 1009.47
1024.84 1023.77 1023.10 1022.96 1022.19 1022.02 1021.44 1020.07 1018.65 1018.47 1018.37 1018.08 1017.15 1017.38 1017.63 1017.42 1017.19 1016.50 1015.66 1015.48 1015.16 1015.18 1015.71 1016.48 1016.73 1018.31 1018.36 1018.41 1018.28 1017.29 1016.02 1014.66 1014.66 1013.61 1013.31 1011.72 1012.11 1011.72 1012.08 1012.22 1012.02 1011.69 1011.26 1010.73 1010.10
1025.26 1024.49 1023.46 1022.66 1022.15 1021.40 1021.21 1019.35 1019.12 1018.03 1019.03 1017.60 1017.18 1016.77 1016.79 1016.27 1015.83 1015.54 1015.38 1014.95 1014.51 1014.76 1015.06 1015.54 1016.34 1017.64 1018.22 1018.14 1018.33 1017.34 1015.45 1014.44 1013.82 1013.31 1012.75 1012.42 1012.17 1012.09 1012.34 1012.56 1012.55 1012.28 1011.97 1011.66 1011.24
1024.73 1024.51 1024.13 1022.24 1021.68 1021.39 1020.06 1018.83 1018.56 1018.53 1017.56 1017.57 1017.05 1016.39 1016.03 1015.60 1015.28 1015.07 1014.75 1014.32 1013.87 1014.01 1014.35 1015.10 1015.87 1017.30 1017.82 1018.21 1017.71 1016.56 1014.52 1013.97 1013.32 1012.85 1012.52 1012.52 1012.16 1012.56 1012.77 1013.06 1013.28 1013.22 1012.87 1012.70 1012.48
Wind_Speed
17 18 21 21 21 21 21 20 20 19 20 20 20 18 18 16 14 2 2 3 5 10 7 5 6 7 4 1 1 1 3 12 7 6 16 11 11 5 7 15 6 7 15 15 17
16 19 19 21 21 21 20 20 21 21 20 20 19 18 16 15 3 3 5 6 5 7 4 5 5 6 3 1 1 4 5 8 5 5 10 18 12 14 11 19 20 19 19 19 23
20 17 19 20 19 20 20 20 21 21 20 20 18 17 13 8 2 2 5 7 6 6 3 1 2 1 3 0 2 3 7 5 16 9 11 19 24 10 14 26 15 21 23 23 23
21 20 22 23 23 23 22 22 21 21 20 20 18 13 9 3 5 2 6 8 6 4 3 4 4 3 1 2 2 4 8 6 13 12 14 18 18 19 19 25 16 21 20 24 23
21 21 21 23 25 26 25 25 24 22 22 17 13 7 4 2 6 2 4 6 3 3 2 3 4 2 4 3 5 5 12 12 16 16 14 15 22 25 25 24 22 19 21 23 23
20 21 22 24 25 27 26 27 23 24 20 15 8 5 3 2 2 1 3 4 3 0 1 2 1 3 5 6 6 5 6 14 15 23 14 20 24 21 30 29 26 23 23 22 24
19 22 23 24 26 27 28 25 25 24 16 10 13 4 2 8 2 4 3 3 2 2 2 4 4 5 3 6 9 8 11 15 22 22 15 6 14 20 30 30 23 22 17 20 22
20 21 22 24 27 28 28 26 29 17 12 11 5 5 5 4 1 6 3 6 5 4 4 5 5 5 5 4 6 8 5 11 14 10 9 10 17 23 28 19 24 25 21 20 24
20 20 21 23 26 28 24 28 16 13 13 5 4 4 6 3 1 4 2 4 4 3 2 3 4 4 3 2 5 5 7 10 16 15 5 5 14 27 26 18 22 24 23 21 22
20 20 21 22 25 25 21 26 10 7 7 2 2 1 4 3 4 5 4 3 2 3 4 2 2 2 1 4 8 11 9 14 19 10 11 19 24 29 25 17 24 23 23 23 23
20 21 23 23 27 16 10 6 9 7 9 2 7 6 5 6 3 5 4 2 2 3 1 2 1 11 13 17 17 12 15 18 23 24 17 20 21 32 28 18 22 21 20 21 22
19 21 22 23 26 12 5 6 3 3 10 5 7 8 7 2 5 6 1 0 2 5 3 3 10 17 8 9 14 15 18 22 25 14 9 22 27 32 25 20 12 10 11 13 14
19 19 21 24 16 5 2 2 4 2 4 8 5 4 5 4 5 5 4 2 5 4 7 9 11 7 12 13 15 18 15 19 21 23 10 15 16 17 4 5 8 10 11 13 13
19 19 19 20 5 3 2 4 3 4 6 5 3 5 3 2 5 5 4 5 2 5 3 8 5 7 11 10 12 14 8 15 17 11 12 7 15 11 3 3 11 13 13 16 17
17 19 17 9 3 3 3 5 3 4 6 2 3 1 1 4 4 1 1 3 6 8 7 12 7 8 8 11 3 12 13 13 17 17 14 3 7 5 6 6 15 16 16 17 17
20 18 18 2 0 3 3 2 3 8 9 4 2 2 3 3 3 5 3 5 2 2 4 18 3 4 7 6 3 10 6 15 4 2 3 8 7 15 2 8 13 13 15 17 19
21 20 13 3 3 3 2 3 6 4 3 5 4 1 0 4 4 2 3 5 3 6 5 4 5 4 4 6 6 8 8 6 8 5 7 7 13 12 1 5 9 15 16 17 17
20 22 4 3 3 4 3 6 3 5 8 3 2 2 5 1 4 3 4 5 0 5 3 1 11 3 3 6 7 3 7 4 7 3 17 10 7 5 5 4 11 13 16 17 17
18 2 4 2 5 3 5 2 9 6 2 3 4 2 4 4 3 3 4 5 5 8 8 3 9 4 11 7 9 6 2 5 6 1 4 4 7 6 12 16 18 17 17 17 17
4 2 3 4 4 5 3 9 7 5 1 2 4 6 7 3 3 1 2 4 5 9 2 4 8 5 2 4 3 5 2 5 1 6 7 6 6 5 14 15 16 15 16 17 17
2 4 0 3 2 3 5 9 6 5 4 6 8 9 10 5 5 4 7 4 5 2 4 4 4 8 4 2 7 5 5 5 3 3 4 7 6 5 7 10 14 14 16 16 16
2 5 2 2 1 2 3 7 5 5 7 8 5 10 6 6 6 6 9 7 5 6 4 5 5 6 12 10 5 5 5 2 2 7 4 5 10 4 5 6 10 13 15 16 15
5 6 1 2 5 4 6 8 5 13 7 4 5 8 6 6 7 10 7 6 10 7 5 5 3 5 13 7 5 2 4 5 7 3 9 5 8 3 3 8 10 12 13 14 16
4 6 0 2 2 5 12 18 11 5 7 6 5 12 15 7 8 8 11 5 7 11 20 8 7 9 11 12 2 11 16 15 8 5 4 9 11 13 12 10 12 12 12 12 13
2 5 5 7 8 10 10 17 21 24 8 5 20 12 14 13 17 11 12 9 10 16 8 4 10 5 9 10 5 17 21 21 12 12 7 5 5 15 6 6 9 9 11 12 14
3 4 2 9 13 12 15 20 24 15 21 19 9 22 20 15 14 19 14 18 13 2 6 6 5 4 4 8 1 7 11 11 13 11 12 8 11 3 4 3 7 10 10 11 13
2 2 5 8 9 12 14 18 25 23 9 16 20 18 19 21 13 14 13 17 19 9 10 6 5 2 6 3 7 8 7 5 3 3 5 4 6 2 3 3 3 7 9 10 11
Wind_Direction
6 2 359 355 355 352 345 343 341 338 335 332 333 333 334 338 338 335 55 347 48 35 27 331 15 346 14 3 258 200 245 250 253 240 263 337 353 350 311 286 308 308 301 315 346
10 359 359 353 350 345 343 341 338 333 333 327 330 329 332 339 335 288 337 35 64 31 42 30 6 336 23 341 305 173 221 246 227 353 312 305 301 313 312 303 286 297 296 318 324
354 357 354 350 345 345 342 339 335 332 328 327 322 319 328 355 312 199 2 17 15 25 38 290 79 85 111 122 257 280 245 359 284 302 300 300 301 296 284 276 293 295 298 299 304
354 358 354 350 346 345 342 338 334 332 330 326 323 311 343 50 306 220 15 4 0 19 30 356 6 58 63 235 245 280 255 268 290 284 286 284 299 286 283 279 286 279 284 287 280
358 354 349 347 347 343 339 337 333 333 327 323 334 28 52 13 251 225 355 330 330 359 34 36 37 47 345 306 339 261 275 294 285 289 279 279 272 276 283 282 280 269 271 275 276
354 352 345 347 343 340 338 332 331 332 329 323 317 91 72 259 194 236 9 310 263 290 221 139 155 186 257 236 199 238 255 257 273 276 278 269 277 281 281 275 267 265 264 264 266
352 348 345 346 342 340 336 332 332 328 320 324 299 123 109 233 338 331 335 268 226 200 243 206 183 168 185 282 251 276 279 274 269 267 261 260 257 251 254 266 276 272 262 264 265
351 349 347 345 339 338 335 330 330 330 332 328 44 88 249 253 17 320 299 310 292 246 200 252 173 201 181 275 308 271 240 266 255 230 235 166 264 269 264 273 278 275 272 262 260
346 346 346 343 340 337 333 322 332 325 329 326 46 106 267 311 261 278 252 269 297 308 300 259 110 202 127 209 315 218 257 227 281 284 230 178 287 273 276 281 277 271 270 267 263
344 340 339 342 340 343 337 321 333 9 353 14 62 351 284 255 291 283 258 249 297 329 6 87 64 269 260 132 233 254 257 273 276 268 321 278 275 272 273 273 268 272 270 267 264
340 340 339 344 342 358 346 3 8 350 41 237 279 270 268 280 254 273 300 20 69 46 237 4 256 237 235 215 237 264 268 266 281 285 292 286 281 281 291 293 276 271 267 268 267
336 337 341 342 343 15 26 64 154 251 309 251 243 251 265 223 296 273 167 236 187 245 148 345 232 251 248 238 247 258 268 283 286 284 309 294 284 285 294 279 310 331 345 333 313
332 334 339 342 348 41 73 116 307 164 271 288 231 251 254 151 270 287 168 167 219 249 204 198 247 312 275 275 282 270 276 281 276 300 275 280 282 300 311 59 359 2 340 330 326
332 332 338 348 29 321 327 316 312 115 52 257 258 268 181 317 279 223 220 186 241 246 258 240 276 262 287 267 274 281 242 275 287 314 295 55 287 311 282 326 353 344 338 330 324
331 326 330 17 254 328 286 336 112 52 355 193 221 241 253 207 314 305 6 149 216 235 93 254 274 286 275 257 242 247 304 281 269 266 295 297 228 273 25 336 344 328 323 322 321
325 324 324 46 330 243 358 80 32 36 261 307 243 217 343 206 236 303 335 18 37 304 264 256 284 221 230 285 259 308 323 293 357 145 240 248 202 300 312 326 314 316 319 319 321
322 320 318 146 257 146 110 56 11 146 336 272 273 189 166 264 293 58 329 311 183 7 321 306 240 260 201 358 347 41 29 326 348 359 235 300 298 262 14 334 325 318 321 326 325
322 311 286 194 133 127 67 42 145 241 232 25 325 290 246 243 246 309 303 296 115 97 303 214 318 220 162 161 221 230 155 182 290 277 294 286 245 261 182 11 341 332 327 330 328
325 302 269 177 150 96 82 57 223 221 308 309 316 330 296 246 248 343 206 241 241 183 177 138 268 250 285 289 135 272 228 221 278 71 3 264 291 122 344 348 343 338 337 333 330
311 316 288 132 130 69 96 247 234 221 35 101 184 178 262 273 279 185 259 212 255 200 169 267 304 249 306 12 298 181 288 321 318 312 299 280 282 260 334 328 333 333 336 333 333
27 310 258 148 99 69 226 232 271 251 204 194 227 267 237 239 210 223 242 267 210 209 144 151 158 278 31 216 202 342 299 227 258 205 269 307 268 215 279 323 324 335 340 336 335
303 295 179 193 240 220 216 210 238 256 219 261 262 260 240 193 223 237 235 222 158 141 223 208 183 271 241 268 200 195 234 253 255 289 236 271 278 227 270 313 337 339 339 340 340
293 266 116 158 253 251 256 266 251 278 249 255 248 218 208 235 246 201 249 252 219 185 232 187 235 321 324 350 7 126 253 244 274 298 255 263 265 217 338 354 349 343 342 342 346
300 308 302 212 294 289 298 291 274 203 269 265 252 255 267 229 231 262 246 243 200 231 233 188 198 190 239 240 171 298 286 278 273 245 253 236 292 309 341 345 345 343 343 343 348
261 256 194 287 282 254 261 283 292 303 258 202 289 255 277 286 271 243 260 262 243 234 223 235 261 196 252 270 258 274 276 282 265 239 234 267 262 309 310 326 330 331 345 354 354
272 326 345 276 281 297 299 290 289 300 301 287 280 295 292 288 298 286 281 284 279 173 199 189 246 148 272 272 37 259 252 252 252 252 245 272 288 209 263 316 351 344 354 360 354
280 262 263 282 295 289 286 295 298 295 267 285 295 301 302 294 296 296 287 278 266 220 202 194 195 151 259 243 325 324 235 198 248 238 177 228 232 183 292 352 347 344 352 354 354